| time (UTC) | temp F | wind direction | speed MPH | gust MPH | rain 1hr in | rain 24hr in | rain mn in | humidity % | barometer mb |
| 20260502181527 | 52 | 302 | 0.0 | 0.0 | 0.00 | 0.00 | 0.00 | 52 | 989.8 |
| 20260502181007 | 51 | 303 | 0.0 | 0.0 | 0.00 | 0.00 | 0.00 | 45 | 989.8 |
| 20260502180507 | 52 | 303 | 0.0 | 0.0 | 0.00 | 0.00 | 0.00 | 46 | 989.8 |
| 20260502170512 | 50 | 302 | 0.0 | 0.0 | 0.00 | 0.00 | 0.00 | 50 | 990.2 |
| 20260502164002 | 50 | 302 | 0.0 | 0.0 | 0.00 | 0.00 | 0.00 | 59 | 990.5 |
| 20260502163503 | 49 | 302 | 0.0 | 0.0 | 0.00 | 0.00 | 0.00 | 57 | 990.5 |
| 20260502163013 | 49 | 302 | 0.0 | 0.0 | 0.00 | 0.00 | 0.00 | 53 | 990.5 |
| 20260502162504 | 49 | 302 | 0.0 | 0.0 | 0.00 | 0.00 | 0.00 | 54 | 990.5 |
| 20260502162007 | 49 | 302 | 0.0 | 0.0 | 0.00 | 0.00 | 0.00 | 52 | 990.5 |
| 20260502161517 | 49 | 303 | 0.0 | 0.0 | 0.00 | 0.00 | 0.00 | 55 | 990.6 |
| 20260502161006 | 48 | 303 | 0.0 | 0.0 | 0.00 | 0.00 | 0.00 | 60 | 990.6 |
| 20260502160510 | 48 | 302 | 0.0 | 0.0 | 0.00 | 0.00 | 0.00 | 56 | 990.7 |
| 20260502152009 | 47 | 302 | 0.0 | 0.0 | 0.00 | 0.00 | 0.00 | 54 | 990.8 |
| 20260502151517 | 47 | 302 | 0.0 | 0.0 | 0.00 | 0.00 | 0.00 | 59 | 990.8 |
| 20260502151002 | 46 | 303 | 0.0 | 0.0 | 0.00 | 0.00 | 0.00 | 64 | 990.7 |
| 20260502150502 | 46 | 302 | 0.0 | 0.0 | 0.00 | 0.00 | 0.00 | 59 | 990.8 |
| 20260502130504 | 40 | 302 | 0.0 | 0.0 | 0.00 | 0.00 | 0.00 | 81 | 990.3 |
| 20260502123506 | 37 | 302 | 0.0 | 0.0 | 0.00 | 0.00 | 0.00 | 86 | 990.3 |
| 20260502123003 | 37 | 302 | 0.0 | 0.0 | 0.00 | 0.00 | 0.00 | 87 | 990.3 |
| 20260502122503 | 36 | 302 | 0.0 | 0.0 | 0.00 | 0.00 | 0.00 | 88 | 990.3 |
| 20260502122006 | 36 | 302 | 0.0 | 0.0 | 0.00 | 0.00 | 0.00 | 88 | 990.3 |
| 20260502121507 | 35 | 302 | 0.0 | 0.0 | 0.00 | 0.00 | 0.00 | 89 | 990.3 |
| 20260502121004 | 35 | 302 | 0.0 | 0.0 | 0.00 | 0.00 | 0.00 | 89 | 990.3 |
| 20260502120503 | 35 | 302 | 0.0 | 0.0 | 0.00 | 0.00 | 0.00 | 89 | 990.3 |
| 20260502115505 | 34 | 302 | 0.0 | 0.0 | 0.00 | 0.00 | 0.00 | 89 | 990.3 |
| 20260502115004 | 33 | 302 | 0.0 | 0.0 | 0.00 | 0.00 | 0.00 | 89 | 990.2 |
| 20260502114514 | 33 | 302 | 0.0 | 0.0 | 0.00 | 0.00 | 0.00 | 89 | 990.1 |
| 20260502114004 | 33 | 302 | 0.0 | 0.0 | 0.00 | 0.00 | 0.00 | 89 | 990.1 |
| 20260502113504 | 33 | 302 | 0.0 | 0.0 | 0.00 | 0.00 | 0.00 | 89 | 990.1 |
| 20260502113024 | 32 | 302 | 0.0 | 0.0 | 0.00 | 0.00 | 0.00 | 88 | 990.1 |
| 20260502112507 | 32 | 302 | 0.0 | 0.0 | 0.00 | 0.00 | 0.00 | 88 | 990.0 |
| 20260502112007 | 32 | 302 | 0.0 | 0.0 | 0.00 | 0.00 | 0.00 | 88 | 990.0 |
| 20260502111502 | 32 | 302 | 0.0 | 0.0 | 0.00 | 0.00 | 0.00 | 88 | 989.9 |
| 20260502111004 | 32 | 302 | 0.0 | 0.0 | 0.00 | 0.00 | 0.00 | 88 | 990.0 |
| 20260502110504 | 32 | 302 | 0.0 | 0.0 | 0.00 | 0.00 | 0.00 | 88 | 989.8 |
| 20260502110009 | 32 | 302 | 0.0 | 0.0 | 0.00 | 0.00 | 0.00 | 88 | 989.7 |
| 20260502105505 | 32 | 302 | 0.0 | 0.0 | 0.00 | 0.00 | 0.00 | 87 | 989.7 |
| 20260502105002 | 32 | 302 | 0.0 | 0.0 | 0.00 | 0.00 | 0.00 | 88 | 989.7 |
| 20260502104514 | 32 | 302 | 0.0 | 0.0 | 0.00 | 0.00 | 0.00 | 88 | 989.7 |
| 20260502104003 | 32 | 302 | 0.0 | 0.0 | 0.00 | 0.00 | 0.00 | 87 | 989.7 |
| 20260502103506 | 32 | 302 | 0.0 | 0.0 | 0.00 | 0.00 | 0.00 | 87 | 989.7 |
| 20260502103018 | 32 | 302 | 0.0 | 0.0 | 0.00 | 0.01 | 0.00 | 87 | 989.7 |
| 20260502102511 | 32 | 302 | 0.0 | 0.0 | 0.00 | 0.01 | 0.00 | 87 | 989.8 |
| 20260502102007 | 32 | 302 | 0.0 | 0.0 | 0.00 | 0.01 | 0.00 | 87 | 989.8 |
| 20260502101520 | 32 | 302 | 0.0 | 0.0 | 0.00 | 0.01 | 0.00 | 87 | 989.8 |
| 20260502101007 | 32 | 302 | 0.0 | 0.0 | 0.00 | 0.01 | 0.00 | 87 | 989.7 |
| 20260502100507 | 32 | 302 | 0.0 | 0.0 | 0.00 | 0.02 | 0.00 | 87 | 989.7 |
| 20260502091519 | 32 | 302 | 0.0 | 0.0 | 0.00 | 0.08 | 0.00 | 87 | 989.5 |
| 20260502091007 | 32 | 302 | 0.0 | 0.0 | 0.00 | 0.08 | 0.00 | 87 | 989.5 |
| 20260502090507 | 32 | 302 | 0.0 | 0.0 | 0.00 | 0.09 | 0.00 | 87 | 989.5 |
| 20260502071510 | 33 | 302 | 0.0 | 0.0 | 0.00 | 0.23 | 0.00 | 84 | 989.3 |
| 20260502071006 | 33 | 302 | 0.0 | 0.0 | 0.00 | 0.24 | 0.00 | 84 | 989.3 |
| 20260502070503 | 33 | 302 | 0.0 | 0.0 | 0.00 | 0.24 | 0.00 | 82 | 989.3 |
| 20260502070030 | 33 | 302 | 0.0 | 0.0 | 0.00 | 0.25 | 0.00 | 82 | 989.3 |
| 20260502065506 | 34 | 302 | 0.0 | 0.0 | 0.00 | 0.25 | 0.00 | 82 | 989.4 |
| 20260502065013 | 34 | 302 | 0.0 | 0.0 | 0.00 | 0.26 | 0.00 | 82 | 989.5 |
| 20260502064521 | 34 | 302 | 0.0 | 0.0 | 0.00 | 0.26 | 0.00 | 81 | 989.5 |
| 20260502064010 | 34 | 302 | 0.0 | 0.0 | 0.00 | 0.27 | 0.00 | 81 | 989.5 |
| 20260502063513 | 34 | 302 | 0.0 | 0.0 | 0.00 | 0.27 | 0.00 | 80 | 989.4 |
| 20260502063012 | 34 | 302 | 0.0 | 0.0 | 0.00 | 0.28 | 0.00 | 80 | 989.6 |
| 20260502062503 | 34 | 302 | 0.0 | 0.0 | 0.00 | 0.29 | 0.00 | 79 | 989.6 |
| 20260502062004 | 35 | 302 | 0.0 | 0.0 | 0.00 | 0.29 | 0.00 | 80 | 989.5 |
| 20260502061513 | 35 | 302 | 0.0 | 0.0 | 0.00 | 0.29 | 0.00 | 80 | 989.6 |
| 20260502061005 | 35 | 302 | 0.0 | 0.0 | 0.00 | 0.29 | 0.00 | 79 | 989.6 |
| 20260502060506 | 35 | 302 | 0.0 | 0.0 | 0.00 | 0.29 | 0.00 | 79 | 989.6 |
| 20260502060027 | 35 | 302 | 0.0 | 0.0 | 0.00 | 0.29 | 0.00 | 78 | 989.7 |
| 20260502055506 | 35 | 302 | 0.0 | 0.0 | 0.00 | 0.29 | 0.00 | 78 | 989.8 |
| 20260502055008 | 35 | 302 | 0.0 | 0.0 | 0.00 | 0.29 | 0.00 | 77 | 989.7 |
| 20260502054531 | 36 | 302 | 0.0 | 0.0 | 0.00 | 0.29 | 0.00 | 76 | 989.8 |
| 20260502054006 | 36 | 302 | 0.0 | 0.0 | 0.00 | 0.29 | 0.00 | 76 | 989.7 |
| 20260502053502 | 36 | 302 | 0.0 | 0.0 | 0.00 | 0.29 | 0.00 | 77 | 989.8 |
| 20260502053003 | 36 | 302 | 0.0 | 0.0 | 0.00 | 0.29 | 0.00 | 77 | 989.9 |
| 20260502052505 | 36 | 302 | 0.0 | 0.0 | 0.00 | 0.29 | 0.00 | 76 | 989.9 |
| 20260502052003 | 36 | 302 | 0.0 | 0.0 | 0.00 | 0.29 | 0.00 | 76 | 990.0 |
| 20260502051506 | 36 | 302 | 0.0 | 0.0 | 0.00 | 0.29 | 0.00 | 76 | 989.9 |
| 20260502051006 | 36 | 302 | 0.0 | 0.0 | 0.00 | 0.29 | 0.00 | 76 | 990.0 |
| 20260502050504 | 36 | 302 | 0.0 | 0.0 | 0.00 | 0.29 | 0.00 | 76 | 990.1 |
| 20260502050015 | 37 | 302 | 0.0 | 0.0 | 0.00 | 0.29 | 0.00 | 76 | 990.1 |
| 20260502045503 | 37 | 302 | 0.0 | 0.0 | 0.00 | 0.29 | 0.00 | 75 | 990.1 |
| 20260502045005 | 37 | 302 | 0.0 | 0.0 | 0.00 | 0.29 | 0.00 | 75 | 990.0 |
| 20260502044516 | 37 | 302 | 0.0 | 0.0 | 0.00 | 0.29 | 0.00 | 75 | 990.0 |
| 20260502044005 | 37 | 302 | 0.0 | 0.0 | 0.00 | 0.29 | 0.00 | 75 | 989.9 |
| 20260502043510 | 37 | 302 | 0.0 | 0.0 | 0.00 | 0.29 | 0.00 | 75 | 989.9 |
| 20260502043017 | 37 | 302 | 0.0 | 0.0 | 0.00 | 0.29 | 0.00 | 75 | 989.9 |
| 20260502042508 | 37 | 302 | 0.0 | 0.0 | 0.00 | 0.29 | 0.00 | 74 | 989.9 |
| 20260502042007 | 37 | 302 | 0.0 | 0.0 | 0.00 | 0.29 | 0.00 | 75 | 989.9 |
| 20260502041510 | 37 | 302 | 0.0 | 0.0 | 0.00 | 0.29 | 0.00 | 74 | 989.9 |
| 20260502041004 | 38 | 302 | 0.0 | 0.0 | 0.00 | 0.29 | 0.00 | 74 | 989.8 |
| 20260502040503 | 38 | 302 | 0.0 | 0.0 | 0.00 | 0.29 | 0.00 | 74 | 989.9 |
| 20260502040006 | 38 | 302 | 0.0 | 0.0 | 0.00 | 0.29 | 0.00 | 73 | 989.9 |
| 20260502035503 | 38 | 302 | 0.0 | 0.0 | 0.00 | 0.29 | 0.29 | 73 | 989.9 |
| 20260502035003 | 38 | 302 | 0.0 | 0.0 | 0.00 | 0.29 | 0.29 | 73 | 989.7 |
| 20260502034510 | 38 | 302 | 0.0 | 0.0 | 0.00 | 0.29 | 0.29 | 72 | 989.7 |
| 20260502034007 | 38 | 302 | 0.0 | 0.0 | 0.00 | 0.29 | 0.29 | 72 | 989.7 |
| 20260502033505 | 38 | 302 | 0.0 | 0.0 | 0.00 | 0.29 | 0.29 | 72 | 989.6 |
| 20260502033026 | 38 | 302 | 0.0 | 0.0 | 0.00 | 0.29 | 0.29 | 70 | 989.7 |
| 20260502032506 | 39 | 302 | 0.0 | 0.0 | 0.00 | 0.29 | 0.29 | 71 | 989.7 |
| 20260502032007 | 39 | 302 | 0.0 | 0.0 | 0.00 | 0.29 | 0.29 | 70 | 989.7 |
| 20260502031521 | 39 | 302 | 0.0 | 0.0 | 0.00 | 0.29 | 0.29 | 70 | 989.6 |
| 20260502031006 | 39 | 302 | 0.0 | 0.0 | 0.00 | 0.29 | 0.29 | 69 | 989.6 |
| 20260502030510 | 39 | 302 | 0.0 | 0.0 | 0.00 | 0.29 | 0.29 | 68 | 989.5 |
| 20260502030004 | 39 | 302 | 0.0 | 0.0 | 0.00 | 0.29 | 0.29 | 69 | 989.5 |
| 20260502025503 | 40 | 302 | 0.0 | 0.0 | 0.00 | 0.29 | 0.29 | 67 | 989.4 |
| 20260502025007 | 40 | 302 | 0.0 | 0.0 | 0.00 | 0.29 | 0.29 | 66 | 989.2 |
| 20260502024507 | 40 | 302 | 0.0 | 0.0 | 0.00 | 0.29 | 0.29 | 65 | 989.1 |
| 20260502024003 | 40 | 302 | 0.0 | 0.0 | 0.00 | 0.29 | 0.29 | 66 | 989.2 |
| 20260502023503 | 40 | 302 | 0.0 | 0.0 | 0.00 | 0.29 | 0.29 | 66 | 989.3 |
| 20260502023026 | 40 | 302 | 0.0 | 0.0 | 0.00 | 0.29 | 0.29 | 66 | 989.1 |
| 20260502022504 | 40 | 302 | 0.0 | 0.0 | 0.00 | 0.29 | 0.29 | 68 | 989.1 |
| 20260502022005 | 40 | 302 | 0.0 | 0.0 | 0.00 | 0.29 | 0.29 | 67 | 989.1 |
| 20260502021516 | 41 | 302 | 0.0 | 0.0 | 0.00 | 0.29 | 0.29 | 66 | 989.0 |
| 20260502021008 | 41 | 302 | 0.0 | 0.0 | 0.00 | 0.29 | 0.29 | 66 | 989.0 |
| 20260502020506 | 41 | 302 | 0.0 | 0.0 | 0.00 | 0.29 | 0.29 | 68 | 988.9 |
| 20260502020022 | 41 | 302 | 0.0 | 0.0 | 0.00 | 0.29 | 0.29 | 68 | 988.9 |
| 20260502015509 | 41 | 302 | 0.0 | 0.0 | 0.00 | 0.29 | 0.29 | 68 | 988.9 |
| 20260502015008 | 41 | 302 | 0.0 | 0.0 | 0.00 | 0.29 | 0.29 | 68 | 988.9 |
| 20260502014531 | 41 | 302 | 0.0 | 0.0 | 0.00 | 0.29 | 0.29 | 69 | 988.8 |
| 20260502014003 | 42 | 302 | 0.0 | 0.0 | 0.00 | 0.29 | 0.29 | 68 | 988.7 |
| 20260502013503 | 42 | 302 | 0.0 | 0.0 | 0.00 | 0.29 | 0.29 | 67 | 988.7 |
| 20260502013009 | 42 | 302 | 0.0 | 0.0 | 0.00 | 0.29 | 0.29 | 66 | 988.6 |
| 20260502012503 | 42 | 302 | 0.0 | 0.0 | 0.00 | 0.29 | 0.29 | 66 | 988.6 |
| 20260502012006 | 42 | 302 | 0.0 | 0.0 | 0.00 | 0.29 | 0.29 | 65 | 988.5 |
| 20260502011514 | 42 | 302 | 0.0 | 0.0 | 0.00 | 0.29 | 0.29 | 65 | 988.3 |
| 20260502011006 | 43 | 302 | 0.0 | 0.0 | 0.00 | 0.29 | 0.29 | 64 | 988.4 |
| 20260502010506 | 43 | 302 | 0.0 | 0.0 | 0.00 | 0.29 | 0.29 | 63 | 988.3 |
| 20260502010019 | 43 | 302 | 0.0 | 0.0 | 0.00 | 0.29 | 0.29 | 63 | 988.3 |
| 20260502005506 | 43 | 302 | 0.0 | 0.0 | 0.00 | 0.29 | 0.29 | 63 | 988.2 |
| 20260502005008 | 43 | 302 | 0.0 | 0.0 | 0.00 | 0.29 | 0.29 | 62 | 988.2 |
| 20260502004525 | 44 | 302 | 0.0 | 0.0 | 0.00 | 0.29 | 0.29 | 61 | 988.2 |
| 20260502004007 | 44 | 302 | 0.0 | 0.0 | 0.00 | 0.29 | 0.29 | 61 | 988.2 |
| 20260502003507 | 44 | 302 | 0.0 | 0.0 | 0.00 | 0.29 | 0.29 | 60 | 988.1 |
| 20260502003024 | 44 | 302 | 0.0 | 0.0 | 0.00 | 0.29 | 0.29 | 61 | 988.1 |
| 20260502002509 | 45 | 302 | 0.0 | 0.0 | 0.00 | 0.29 | 0.29 | 59 | 988.1 |
| 20260502002006 | 45 | 302 | 0.0 | 0.0 | 0.00 | 0.29 | 0.29 | 59 | 988.1 |
| 20260502001512 | 45 | 302 | 0.0 | 0.0 | 0.00 | 0.29 | 0.29 | 60 | 988.1 |
| 20260502001006 | 45 | 302 | 0.0 | 0.0 | 0.00 | 0.29 | 0.29 | 57 | 988.0 |
| 20260502000506 | 46 | 302 | 0.0 | 0.0 | 0.00 | 0.29 | 0.29 | 58 | 988.0 |
| 20260502000018 | 46 | 302 | 0.0 | 0.0 | 0.00 | 0.29 | 0.29 | 58 | 988.1 |
| 20260501235508 | 46 | 302 | 0.0 | 0.0 | 0.00 | 0.29 | 0.29 | 58 | 988.1 |
| 20260501235005 | 46 | 302 | 0.0 | 0.0 | 0.00 | 0.29 | 0.29 | 58 | 987.9 |
| 20260501234520 | 47 | 302 | 0.0 | 0.0 | 0.00 | 0.29 | 0.29 | 57 | 987.8 |
| 20260501234008 | 47 | 301 | 0.0 | 0.0 | 0.00 | 0.29 | 0.29 | 59 | 987.8 |
| 20260501233506 | 47 | 302 | 0.0 | 0.0 | 0.00 | 0.29 | 0.29 | 58 | 987.8 |
| 20260501233022 | 47 | 301 | 0.0 | 0.0 | 0.00 | 0.29 | 0.29 | 57 | 987.8 |
| 20260501232517 | 47 | 302 | 0.0 | 0.0 | 0.00 | 0.29 | 0.29 | 58 | 987.7 |
| 20260501232009 | 48 | 301 | 0.0 | 0.0 | 0.00 | 0.29 | 0.29 | 57 | 987.7 |
| 20260501231529 | 48 | 301 | 0.0 | 0.0 | 0.00 | 0.29 | 0.29 | 56 | 987.7 |
| 20260501231009 | 48 | 301 | 0.0 | 0.0 | 0.00 | 0.29 | 0.29 | 56 | 987.7 |
| 20260501230513 | 48 | 301 | 0.0 | 0.0 | 0.00 | 0.29 | 0.29 | 55 | 987.7 |
| 20260501230026 | 48 | 301 | 0.0 | 0.0 | 0.00 | 0.29 | 0.29 | 55 | 987.7 |
| 20260501225506 | 48 | 301 | 0.0 | 0.0 | 0.00 | 0.29 | 0.29 | 55 | 987.7 |
| 20260501225005 | 49 | 302 | 0.0 | 0.0 | 0.00 | 0.29 | 0.29 | 53 | 987.6 |
| 20260501224522 | 49 | 301 | 0.0 | 0.0 | 0.00 | 0.29 | 0.29 | 55 | 987.6 |
| 20260501224006 | 49 | 301 | 0.0 | 0.0 | 0.00 | 0.29 | 0.29 | 53 | 987.6 |
| 20260501223506 | 49 | 301 | 0.0 | 0.0 | 0.00 | 0.29 | 0.29 | 55 | 987.6 |
| 20260501223024 | 49 | 301 | 0.0 | 0.0 | 0.00 | 0.29 | 0.29 | 55 | 987.5 |
| 20260501222506 | 49 | 301 | 0.0 | 0.0 | 0.00 | 0.29 | 0.29 | 55 | 987.5 |
| 20260501222011 | 49 | 301 | 0.0 | 0.0 | 0.00 | 0.29 | 0.29 | 55 | 987.4 |
| 20260501221525 | 49 | 300 | 0.0 | 0.0 | 0.00 | 0.29 | 0.29 | 57 | 987.4 |
| 20260501221010 | 49 | 301 | 0.0 | 0.0 | 0.00 | 0.29 | 0.29 | 55 | 987.4 |
| 20260501220507 | 49 | 300 | 0.0 | 0.0 | 0.00 | 0.29 | 0.29 | 54 | 987.4 |
| 20260501220026 | 50 | 302 | 0.0 | 0.0 | 0.00 | 0.29 | 0.29 | 55 | 987.5 |
| 20260501215510 | 50 | 301 | 0.0 | 0.0 | 0.00 | 0.29 | 0.29 | 55 | 987.5 |
| 20260501215011 | 50 | 301 | 0.0 | 0.0 | 0.00 | 0.29 | 0.29 | 55 | 987.4 |
| 20260501214517 | 50 | 301 | 0.0 | 0.0 | 0.00 | 0.29 | 0.29 | 56 | 987.3 |
| 20260501214007 | 50 | 302 | 0.0 | 0.0 | 0.00 | 0.29 | 0.29 | 57 | 987.3 |
| 20260501213508 | 50 | 301 | 0.0 | 0.0 | 0.00 | 0.29 | 0.29 | 55 | 987.3 |
| 20260501213005 | 50 | 301 | 0.0 | 0.0 | 0.00 | 0.29 | 0.29 | 56 | 987.4 |
| 20260501212502 | 50 | 302 | 0.0 | 0.0 | 0.00 | 0.29 | 0.29 | 53 | 987.4 |
| 20260501212003 | 51 | 302 | 0.0 | 0.0 | 0.00 | 0.29 | 0.29 | 48 | 987.3 |
| 20260501211503 | 52 | 301 | 0.0 | 0.0 | 0.00 | 0.29 | 0.29 | 52 | 987.3 |
| 20260501211004 | 52 | 301 | 0.0 | 0.0 | 0.00 | 0.29 | 0.29 | 52 | 987.2 |
| 20260501210503 | 52 | 302 | 0.0 | 0.0 | 0.00 | 0.29 | 0.29 | 56 | 987.1 |
| 20260501210008 | 51 | 302 | 0.0 | 0.0 | 0.00 | 0.29 | 0.29 | 52 | 987.1 |
| 20260501205503 | 51 | 301 | 0.0 | 0.0 | 0.00 | 0.29 | 0.29 | 51 | 987.2 |
| 20260501205003 | 52 | 302 | 0.0 | 0.0 | 0.00 | 0.29 | 0.29 | 53 | 987.2 |
| 20260501204509 | 52 | 302 | 0.0 | 0.0 | 0.00 | 0.29 | 0.29 | 52 | 987.1 |
| 20260501204003 | 52 | 302 | 0.0 | 0.0 | 0.00 | 0.29 | 0.29 | 55 | 987.1 |
| 20260501203503 | 53 | 302 | 0.0 | 0.0 | 0.00 | 0.29 | 0.29 | 57 | 987.1 |
| 20260501203020 | 54 | 301 | 0.0 | 0.0 | 0.00 | 0.29 | 0.29 | 52 | 987.2 |
| 20260501202503 | 52 | 302 | 0.0 | 0.0 | 0.00 | 0.29 | 0.29 | 64 | 987.1 |
| 20260501202003 | 51 | 301 | 0.0 | 0.0 | 0.00 | 0.29 | 0.29 | 62 | 987.1 |
| 20260501201510 | 51 | 301 | 0.0 | 0.0 | 0.00 | 0.29 | 0.29 | 59 | 987.1 |
| 20260501201003 | 51 | 301 | 0.0 | 0.0 | 0.00 | 0.29 | 0.29 | 60 | 987.2 |
| 20260501200503 | 51 | 301 | 0.0 | 0.0 | 0.00 | 0.29 | 0.29 | 60 | 987.2 |
| 20260501200011 | 51 | 300 | 0.0 | 0.0 | 0.00 | 0.29 | 0.29 | 58 | 987.2 |
| 20260501195504 | 52 | 300 | 0.0 | 0.0 | 0.00 | 0.29 | 0.29 | 56 | 987.2 |
| 20260501195005 | 53 | 299 | 0.0 | 0.0 | 0.00 | 0.29 | 0.29 | 58 | 987.1 |
| 20260501194515 | 53 | 300 | 0.0 | 0.0 | 0.00 | 0.29 | 0.29 | 61 | 987.0 |
| 20260501194002 | 52 | 302 | 0.0 | 0.0 | 0.00 | 0.29 | 0.29 | 64 | 986.9 |
| 20260501193503 | 50 | 302 | 0.0 | 0.0 | 0.00 | 0.29 | 0.29 | 66 | 986.9 |
| 20260501193012 | 50 | 301 | 0.0 | 0.0 | 0.00 | 0.29 | 0.29 | 63 | 987.0 |
| 20260501192503 | 50 | 301 | 0.0 | 0.0 | 0.00 | 0.29 | 0.29 | 61 | 987.0 |
| 20260501192003 | 51 | 301 | 0.0 | 0.0 | 0.00 | 0.29 | 0.29 | 62 | 986.9 |
| 20260501191511 | 51 | 301 | 0.0 | 0.0 | 0.00 | 0.29 | 0.29 | 63 | 986.8 |
| 20260501191004 | 51 | 300 | 0.0 | 0.0 | 0.00 | 0.29 | 0.29 | 60 | 986.9 |
| 20260501190505 | 52 | 300 | 0.0 | 0.0 | 0.00 | 0.29 | 0.29 | 59 | 986.8 |
| 20260501190014 | 52 | 301 | 0.0 | 0.0 | 0.00 | 0.29 | 0.29 | 59 | 986.8 |
| 20260501185504 | 53 | 302 | 0.0 | 0.0 | 0.00 | 0.29 | 0.29 | 59 | 986.7 |
| 20260501185003 | 53 | 299 | 0.0 | 0.0 | 0.00 | 0.29 | 0.29 | 62 | 986.6 |
| 20260501184512 | 52 | 301 | 0.0 | 0.0 | 0.00 | 0.29 | 0.29 | 59 | 986.5 |
| 20260501184003 | 52 | 304 | 0.0 | 0.0 | 0.00 | 0.29 | 0.29 | 62 | 986.6 |
| 20260501183505 | 51 | 300 | 0.0 | 0.0 | 0.00 | 0.29 | 0.29 | 64 | 986.5 |
| 20260501183011 | 51 | 300 | 0.0 | 0.0 | 0.00 | 0.29 | 0.29 | 61 | 986.6 |
| 20260501182502 | 51 | 300 | 0.0 | 0.0 | 0.00 | 0.29 | 0.29 | 60 | 986.5 |
| 20260501182003 | 51 | 300 | 0.0 | 0.0 | 0.00 | 0.29 | 0.29 | 62 | 986.4 |